COSMOS 1823 DEB, 18729

Orbit data source: Space-Track

COSMOS 1823 DEB, 18729 is space debris in LEO originally from a launch on Fri, 20 Feb 1987 UTC launched from the Plesetsk Missile And Space Complex (PKMTR). Debris objects in space refer to the collection of defunct objects orbiting the Earth. Examples of debris include non-operational satellites, rocket bodies, and fragments generated from explosions, collisions, or faulty payload assembly.

Loading next visibility...
Identifier
18729, 1987-020G
Orbit
LEO
Country
Flag of CISCIS
Related business
Manufacturer
Unknown
Mission
Spacecraft
Bus & Motor
Unknown
Mass
Unknown
Launch date (UTC)
1987-02-20 (39 years ago)
Launch vehicle
Unknown
Launch site
Plesetsk Missile And Space Complex (PKMTR)
Object type
Payload
Rocket body
Debris
Shape & HBR
Unknown shape, 0.2 m
Radar Cross Section
Medium (>0.1 m² and <1 m²)

Expand to show TLE details & history
Last TLE update: 2 days ago

TLE from 2 days ago
0 COSMOS 1823 DEB
1 18729U 87020G   26171.42914888  .00000027  00000-0  38855-3 0  9996
2 18729  73.8115 180.6572 0128543 212.2083 302.5624 12.23659564719398
Epoch: 2026-06-20T10:17Z
TLE epoch observation values (Epoch: 2026-06-20T10:17:58.463Z)
Latitude
25.38923°
Longitude
-70.3609°
Altitude
1,525.092 km
Speed
7.129 km/s
True Right ascension
23h 31m 06s
True Declination
25° 16' 09"
Sunlit
Object was in daylight at epoch
Visualization orbit readout
Latitude
Unknown
Longitude
Unknown
Altitude
Unknown
Speed
Unknown
Apparent Right ascension
Unknown
Apparent Declination
Unknown
Sunlit
N/A
Visualization observer readout
Local Sidereal Time
01:45:28
Azimuth
Unknown
Elevation
Unknown
Doppler factor
Unknown
Orbital elements
Apogee altitude
1,676.75 km
Perigee altitude
1,472.298 km
Semi-major axis
7,952.661 km
Eccentricity
0.01285
Inclination
73.8115°
RAAN
180.6572°
Arg. of periapsis
212.2083°
True anomaly
301.31023°
Mean anomaly
302.5624°
Eccentric anomaly
301.93739°
Mean motion
3.06037 °/min
Orbital period
117.63 mins
BSTAR
0.00038855
Loading maneuver chart data...
Computing Atmospheric mass density...

Documentation

Showing up to 5 results
|